sat.trackr.live / text

‹ back to catalog

STARLINK-3158

NORAD 49432 · 2021-104AA

PAYLOAD ACTIVE UNKNOWN

§ Identity

Operator
Country
US
Launch date
2021-11-13
Launch site
AFETR
Launch vehicle
Mass (kg)
RCS (m²)

Purposes: comms

External: N2YO · Heavens-Above · Gunter

§ Orbital elements

Epoch: 2026-05-24T17:49:27.523488Z

Period
95.44 min
Inclination
53.2144°
Eccentricity
0.0000722
Mean motion
15.08844734 rev/d
Perigee alt
539.2 km
Apogee alt
540.2 km
Semi-major
6,917.9 km
B*
-2.4524e-5
RAAN
237.7027°
Arg perigee
80.2369°
Mean anomaly
279.8705°
Rev number
25,025

§ Raw data

STARLINK-31581 49432U 21104AA  26144.74267967 -.00000678  00000+0 -24524-4 0  99982 49432  53.2144 237.7027 0000722  80.2369 279.8705 15.08844734250256

JSON: /api/v1/satellites/49432 · /tle

For live sub-satellite position, see the globe view (requires WebGL).

§ Visibility from observer

Set your observer location to see the next 7 days of passes ≥ 10°. The values pass through the URL so the page stays shareable.

No JS? Fill the form by hand. The geolocation button needs JavaScript.